Location: Star Dogged Moon Observatory
(29.7756°N, 82.0783°W)
Time: 09:10:27
(UTC-04:00)

Amateur Radio Satellites - All Passes

Search period start: 21 April 2015 08:40
Search period end: 22 April 2015 08:40
Location: Star Dogged Moon Observatory, 29.7756°N, 82.0783°W

Satellite Date Start Highest point End Downlink Frequencies (MHz)
Time Altitude Azimuth
STRAND 1 21 Apr 09:01:01 09:04:11 16° 267° (W) 09:07:06 437.568
DOVE 4 21 Apr 09:12:48 09:15:58 17° 93° (E) 09:19:28 437.250
BRITE-PL 21 Apr 09:34:19 09:39:23 72° 101° (E) 09:44:49 437.365/2234.400
SRMSAT 21 Apr 09:40:57 09:45:36 24° 191° (S) 09:50:13 437.500
HO-68 21 Apr 09:41:16 09:48:02 45° 100° (E) 09:54:50 435.675
JUGNU 21 Apr 09:43:38 09:45:59 12° 198° (SSW) 09:48:12 437.505
GOMX 1 21 Apr 09:47:52 09:52:57 64° 100° (E) 09:58:18 467.674
COMPASS 1 21 Apr 09:49:11 09:52:43 27° 96° (E) 09:56:18 437.405
PCSat 21 Apr 10:01:13 10:06:38 77° 296° (WNW) 10:12:04 145.827
CANX-2 21 Apr 10:05:57 10:10:15 82° 101° (E) 10:14:30 2200.000
SEEDS 21 Apr 10:06:11 10:10:22 58° 100° (E) 10:14:31 437.485
UWE-3 21 Apr 10:09:09 10:10:49 12° 91° (E) 10:12:50 435.000/436.395/437.385
CUTE 1.7 + AOD 2 21 Apr 10:15:53 10:20:10 83° 283° (WNW) 10:24:25 437.475
O/OREOS (USA 219) 21 Apr 10:17:41 10:22:11 73° 71° (ENE) 10:26:37 437.305
FUNcube-1 21 Apr 10:31:12 10:34:07 17° 93° (E) 10:37:12 145.935
CINEMA 3 21 Apr 10:33:07 10:38:03 65° 100° (E) 10:43:03 145.822/145.860
AAUSAT CUBESAT 2 21 Apr 10:35:31 10:39:43 86° 283° (WNW) 10:43:53 437.432
Cosmos 2491 21 Apr 10:43:45 10:51:50 40° 77° (ENE) 11:00:02 435.465 / 435.565
DELFI C3 21 Apr 10:43:50 10:47:29 33° 97° (E) 10:51:08 145.870
UKube-1 21 Apr 10:45:50 10:47:40 13° 93° (E) 10:49:44 .
POLYITAN 1 21 Apr 10:48:25 10:49:58 12° 70° (ENE) 10:51:46 437.675
DOVE 4 21 Apr 10:49:03 10:53:52 43° 285° (WNW) 10:58:48 437.250
TIGRISAT 21 Apr 10:51:45 10:55:36 31° 73° (ENE) 10:59:36 435.000
ZACube-1 21 Apr 10:53:30 10:57:38 33° 97° (E) 11:01:47 437.345
UNISAT 6 21 Apr 10:53:36 10:57:34 33° 73° (ENE) 11:01:40 437.425
DUCHIFAT 1 21 Apr 10:55:08 10:57:15 14° 71° (ENE) 10:59:35 145.980
Oscar 11 21 Apr 11:04:30 11:08:53 90° 118° (ESE) 11:13:12 145.826/435.025
CUBEBUG 2 21 Apr 11:06:09 11:10:56 77° 102° (ESE) 11:15:42 437.445
QB50P1 21 Apr 11:08:14 11:11:22 22° 72° (ENE) 11:14:38 145.935-145.965
BUGSAT 1 21 Apr 11:12:03 11:14:17 15° 71° (ENE) 11:16:41 437.445
BRITE-PL 21 Apr 11:16:34 11:17:33 10° 290° (WNW) 11:18:09 437.365/2234.400
COMPASS 1 21 Apr 11:25:21 11:28:14 18° 288° (WNW) 11:30:57 437.405
GOMX 1 21 Apr 11:28:40 11:30:43 12° 290° (WNW) 11:32:28 467.674
HUMSAT D 21 Apr 11:29:10 11:33:12 38° 98° (E) 11:37:15 437.325/437.525
HO-68 21 Apr 11:29:34 11:35:31 28° 293° (WNW) 11:41:15 435.675
DX 1 21 Apr 11:29:35 11:33:50 51° 100° (E) 11:38:05 434.975-435.025
QB50P2 21 Apr 11:31:33 11:35:32 43° 75° (ENE) 11:39:34 145.880/145.840
SRMSAT 21 Apr 11:32:07 11:34:17 12° 199° (SSW) 11:36:17 437.500
ANTELSAT 21 Apr 11:34:56 11:39:20 74° 259° (W) 11:43:53 437.575/2403.000
YUBILEINY 21 Apr 11:43:04 11:51:33 55° 91° (E) 12:00:06 435.215
UWE-3 21 Apr 11:43:07 11:47:39 48° 285° (WNW) 11:52:08 435.000/436.395/437.385
50 SAT 21 Apr 11:51:23 11:55:14 41° 99° (E) 11:59:03 437.505
NANOSAT C BR1 21 Apr 11:53:02 11:57:13 83° 75° (ENE) 12:01:26 145.865
POPSAT HIP 1 21 Apr 11:53:54 11:58:06 85° 80° (E) 12:02:19 437.405
FUNcube-1 21 Apr 12:06:23 12:10:32 33° 286° (WNW) 12:14:35 145.935
CINEMA 3 21 Apr 12:13:15 12:14:48 11° 291° (WNW) 12:16:01 145.822/145.860
VELOX 1 21 Apr 12:16:55 12:21:22 82° 102° (ESE) 12:25:48 145.980
UKube-1 21 Apr 12:19:57 12:24:00 38° 286° (WNW) 12:27:59 .
DELFI C3 21 Apr 12:20:21 12:22:23 13° 289° (WNW) 12:24:10 145.870
POLYITAN 1 21 Apr 12:21:37 12:25:34 39° 261° (W) 12:29:32 437.675
SO-50 21 Apr 12:28:39 12:32:27 27° 111° (ESE) 12:36:27 436.795
DUCHIFAT 1 21 Apr 12:29:01 12:32:50 33° 262° (W) 12:36:37 145.980
TIGRISAT 21 Apr 12:29:27 12:32:26 17° 267° (W) 12:35:18 435.000
ZACube-1 21 Apr 12:30:36 12:33:46 18° 289° (WNW) 12:36:45 437.345
UNISAT 6 21 Apr 12:31:42 12:34:29 16° 267° (W) 12:37:06 437.425
AISAT 21 Apr 12:32:49 12:37:13 61° 285° (WNW) 12:41:37 437.250
CUBEBUG 1 21 Apr 12:36:53 12:41:12 62° 101° (E) 12:45:32 437.445
Cosmos 2491 21 Apr 12:40:47 12:48:34 35° 272° (W) 12:56:09 435.465 / 435.565
SPROUT 21 Apr 12:42:13 12:44:40 15° 93° (E) 12:47:20 437.525
QB50P1 21 Apr 12:43:52 12:47:10 22° 264° (W) 12:50:23 145.935-145.965
BUGSAT 1 21 Apr 12:46:02 12:49:34 28° 263° (W) 12:53:03 437.445
ESTCUBE 1 21 Apr 12:54:30 12:58:58 69° 283° (WNW) 13:03:24 437.505/2401.250
Oscar 19 21 Apr 13:03:33 13:05:49 13° 68° (ENE) 13:08:24 437.125/150
HUMSAT D 21 Apr 13:06:25 13:08:40 14° 289° (WNW) 13:10:42 437.325/437.525
DX 1 21 Apr 13:08:48 13:09:42 10° 291° (WNW) 13:10:18 434.975-435.025
QB50P2 21 Apr 13:10:55 13:11:43 10° 269° (W) 13:12:12 145.880/145.840
50 SAT 21 Apr 13:28:41 13:29:43 11° 290° (WNW) 13:30:29 437.505
Cosmos 2504 21 Apr 13:36:09 13:42:48 26° 86° (E) 13:49:52 435.465 / 435.565
YUBILEINY 21 Apr 13:41:42 13:48:51 25° 288° (WNW) 13:55:38 435.215
ISS 21 Apr 13:45:14 13:48:28 73° 314° (NW) 13:51:44 145.825
AIST 1 21 Apr 13:47:55 13:52:01 46° 267° (W) 13:56:06
BEESAT 2 21 Apr 13:51:48 13:55:34 35° 58° (ENE) 13:59:18 435.950
BEESAT 3 21 Apr 13:56:34 14:00:32 50° 60° (ENE) 14:04:26 437.485
BEESAT 21 Apr 14:02:36 14:05:04 15° 93° (E) 14:07:48 436.000
SWISSCUBE 21 Apr 14:03:53 14:06:48 17° 94° (E) 14:09:57 437.505
TISAT 1 21 Apr 14:04:44 14:08:55 58° 284° (WNW) 14:13:05 437.305
SO-50 21 Apr 14:09:09 14:12:58 24° 306° (NW) 14:16:47 436.795
SPROUT 21 Apr 14:17:00 14:20:52 32° 286° (WNW) 14:24:41 437.525
AIST 2 21 Apr 14:22:40 14:26:04 24° 56° (NE) 14:29:30 435.215
Oscar 19 21 Apr 14:39:45 14:44:46 55° 260° (W) 14:49:50 437.125/150
RS-15 21 Apr 14:40:20 14:49:52 39° 108° (ESE) 14:59:44 29.354- 29.394
ITAMSAT 1 21 Apr 15:03:32 15:08:42 72° 76° (ENE) 15:13:53 435.822/435.867
ITUPSAT 1 21 Apr 15:04:26 15:09:12 78° 103° (ESE) 15:13:57 437.325
Gurwin Techsat 1B 21 Apr 15:05:09 15:10:21 61° 75° (ENE) 15:15:37 435.225
JAS-2 21 Apr 15:08:30 15:11:28 13° 63° (ENE) 15:15:01 435.910
KKS-1 21 Apr 15:15:44 15:18:14 15° 93° (E) 15:20:58 437.445
AO-7 21 Apr 15:24:19 15:30:13 23° 63° (ENE) 15:36:27 29.400- 29.500
Cosmos 2504 21 Apr 15:27:12 15:35:47 56° 280° (W) 15:44:27 435.465 / 435.565
BEESAT 2 21 Apr 15:31:19 15:33:24 13° 250° (WSW) 15:35:16 435.950
BEESAT 21 Apr 15:38:39 15:43:08 41° 286° (WNW) 15:47:33 436.000
SWISSCUBE 21 Apr 15:40:27 15:44:48 35° 287° (WNW) 15:49:05 437.505
AIST 2 21 Apr 16:01:17 16:04:33 22° 249° (WSW) 16:07:40 435.215
GONETS M04 21 Apr 16:10:25 16:13:44 13° 83° (E) 16:17:53
STARS 21 Apr 16:20:22 16:24:45 57° 100° (E) 16:29:07 437.465
HORYU 2 21 Apr 16:26:13 16:30:40 86° 77° (ENE) 16:35:11 437.375
JAS-2 21 Apr 16:47:50 16:55:33 80° 76° (ENE) 17:03:26 435.910
Gurwin Techsat 1B 21 Apr 16:48:50 16:50:48 12° 269° (W) 16:52:22 435.225
KKS-1 21 Apr 16:50:55 16:55:00 35° 286° (WNW) 16:59:04 437.445
RS-15 21 Apr 16:51:35 17:02:02 48° 305° (NW) 17:12:31 29.354- 29.394
AO-7 21 Apr 17:14:16 17:22:28 65° 257° (WSW) 17:30:41 29.400- 29.500
VERMONT LUNAR 21 Apr 17:58:58 18:02:10 41° 145° (SE) 18:05:24 437.305
GONETS M04 21 Apr 18:00:56 18:09:41 87° 275° (W) 18:18:32
Cosmos 2499 21 Apr 18:13:39 18:18:04 16° 84° (E) 18:23:10 435.465 / 435.565
MOZHAYETS 4 21 Apr 18:20:09 18:24:42 65° 284° (WNW) 18:29:12
CUSAT 1 21 Apr 18:36:03 18:38:56 87° 99° (E) 18:42:35 437.405
JAS-2 21 Apr 18:36:37 18:41:21 16° 271° (W) 18:45:33 435.910
DANDE 21 Apr 18:45:27 18:48:10 73° 96° (E) 18:51:29 436.750
PCSat 21 Apr 18:55:55 19:00:13 24° 57° (ENE) 19:04:38 145.827
CUTE-I 21 Apr 18:57:56 19:03:14 69° 76° (ENE) 19:08:32 437.470
AUBIESAT-1 21 Apr 18:58:52 19:01:47 19° 97° (E) 19:04:39 437.475
PRISM 21 Apr 19:05:01 19:06:02 11° 92° (E) 19:07:20 437.425
Cubesat XI-IV 21 Apr 19:06:05 19:11:25 85° 79° (E) 19:16:47 437.490
RS-15 21 Apr 19:15:08 19:18:21 11° 334° (NNW) 19:20:55 29.354- 29.394
PHONESAT 2.4 21 Apr 19:18:31 19:22:05 68° 148° (SSE) 19:25:39 2401.200-2431.200
VERMONT LUNAR 21 Apr 19:36:44 19:39:45 29° 339° (NNW) 19:42:46 437.305
STRAND 1 21 Apr 19:37:04 19:41:07 24° 96° (E) 19:45:17 437.568
CUBESAT XI-V 21 Apr 19:43:33 19:48:08 69° 100° (E) 19:52:43 437.345
M-CUBED/EXP-1 PRIME 21 Apr 19:45:49 19:50:03 80° 287° (WNW) 19:53:55 437.505
Cosmos 2499 21 Apr 20:01:35 20:10:27 83° 277° (W) 20:19:19 435.465 / 435.565
GONETS M04 21 Apr 20:04:05 20:08:00 13° 295° (WNW) 20:11:08
HO-68 21 Apr 20:05:30 20:09:51 18° 64° (ENE) 20:14:34 435.675
AUBIESAT-1 21 Apr 20:33:15 20:36:34 23° 293° (WNW) 20:39:36 437.475
PRISM 21 Apr 20:37:54 20:41:44 38° 286° (WNW) 20:45:31 437.425
PCSat 21 Apr 20:38:49 20:43:43 34° 251° (WSW) 20:48:30 145.827
BRITE-PL 21 Apr 20:40:35 20:44:23 36° 75° (ENE) 20:48:14 437.365/2234.400
GOMX 1 21 Apr 20:51:27 20:55:02 29° 74° (ENE) 20:58:44 467.674
SEEDS 21 Apr 20:53:18 20:56:17 19° 72° (ENE) 20:59:24 437.485
CANX-2 21 Apr 20:53:23 20:56:57 27° 74° (ENE) 21:00:37 2200.000
PHONESAT 2.4 21 Apr 20:57:33 21:00:33 24° 342° (NNW) 21:03:34 2401.200-2431.200
CUTE 1.7 + AOD 2 21 Apr 21:03:01 21:06:47 31° 74° (ENE) 21:10:37 437.475
STRAND 1 21 Apr 21:15:57 21:20:18 28° 288° (WNW) 21:24:34 437.568
VERMONT LUNAR 21 Apr 21:16:08 21:17:57 14° 355° (N) 21:19:47 437.305
AAUSAT CUBESAT 2 21 Apr 21:20:46 21:24:21 28° 74° (ENE) 21:28:00 437.432
CINEMA 3 21 Apr 21:29:57 21:33:25 26° 73° (ENE) 21:37:05 145.822/145.860
ZACube-1 21 Apr 21:45:54 21:47:28 12° 70° (ENE) 21:49:19 437.345
DOVE 4 21 Apr 21:49:05 21:53:13 78° 258° (WSW) 21:57:29 437.250
HO-68 21 Apr 21:49:51 21:57:00 69° 257° (WSW) 22:04:11 435.675
ISS 21 Apr 21:53:24 21:56:38 83° 46° (NE) 21:59:52 145.825
Oscar 11 21 Apr 21:53:35 21:57:24 31° 74° (ENE) 22:01:17 145.826/435.025
CUBEBUG 2 21 Apr 21:59:07 22:02:45 29° 73° (ENE) 22:06:34 437.445
Cosmos 2499 21 Apr 22:01:04 22:05:03 13° 294° (WNW) 22:08:11 435.465 / 435.565
YUBILEINY 21 Apr 22:02:37 22:08:08 19° 69° (ENE) 22:14:10 435.215
COMPASS 1 21 Apr 22:09:14 22:13:22 55° 260° (W) 22:17:32 437.405
HUMSAT D 21 Apr 22:17:09 22:18:56 13° 70° (ENE) 22:20:57 437.325/437.525
DX 1 21 Apr 22:20:13 22:23:23 21° 72° (ENE) 22:26:41 434.975-435.025
BRITE-PL 21 Apr 22:21:51 22:23:11 11° 268° (W) 22:24:15 437.365/2234.400
SEEDS 21 Apr 22:28:22 22:31:56 25° 264° (W) 22:35:27 437.485
CANX-2 21 Apr 22:29:51 22:32:54 18° 266° (W) 22:35:49 2200.000
GOMX 1 21 Apr 22:30:59 22:33:20 14° 268° (W) 22:35:30 467.674
50 SAT 21 Apr 22:33:34 22:34:39 11° 70° (ENE) 22:35:58 437.505
UWE-3 21 Apr 22:34:08 22:38:20 65° 77° (ENE) 22:42:40 435.000/436.395/437.385
PHONESAT 2.4 21 Apr 22:37:32 22:39:37 14° 359° (N) 22:41:40 2401.200-2431.200
CUTE 1.7 + AOD 2 21 Apr 22:40:09 22:42:48 15° 267° (W) 22:45:16 437.475
SO-50 21 Apr 22:45:16 22:50:10 62° 60° (ENE) 22:54:59 436.795
O/OREOS (USA 219) 21 Apr 22:46:06 22:49:05 18° 102° (ESE) 22:52:14 437.305
TIGRISAT 21 Apr 22:51:48 22:52:59 11° 91° (E) 22:54:30 435.000
UNISAT 6 21 Apr 22:53:29 22:55:16 12° 91° (E) 22:57:20 437.425
VERMONT LUNAR 21 Apr 22:54:03 22:56:20 17° 12° (NNE) 22:58:38 437.305
FUNcube-1 21 Apr 22:55:39 22:59:53 88° 257° (WSW) 23:04:15 145.935
AAUSAT CUBESAT 2 21 Apr 22:57:13 23:00:01 17° 266° (W) 23:02:39 437.432
DELFI C3 21 Apr 22:59:58 23:03:55 46° 261° (W) 23:07:52 145.870
CINEMA 3 21 Apr 23:07:42 23:10:41 18° 267° (W) 23:13:33 145.822/145.860
UKube-1 21 Apr 23:08:24 23:12:43 80° 77° (ENE) 23:17:03 .
VELOX 1 21 Apr 23:08:58 23:12:53 33° 74° (ENE) 23:16:52 145.980
ZACube-1 21 Apr 23:19:28 23:23:29 41° 262° (W) 23:27:37 437.345
AISAT 21 Apr 23:24:39 23:28:56 55° 75° (ENE) 23:33:14 437.250
QB50P2 21 Apr 23:24:55 23:26:28 12° 92° (E) 23:28:17 145.880/145.840
CUBEBUG 1 21 Apr 23:27:51 23:31:18 24° 73° (ENE) 23:34:49 437.445
Oscar 11 21 Apr 23:30:55 23:33:40 16° 267° (W) 23:36:13 145.826/435.025
ANTELSAT 21 Apr 23:33:10 23:37:33 38° 98° (E) 23:41:53 437.575/2403.000
CUBEBUG 2 21 Apr 23:36:44 23:39:33 17° 267° (W) 23:42:14 437.445
Cosmos 2491 21 Apr 23:36:50 23:45:13 56° 92° (E) 23:53:43 435.465 / 435.565
NANOSAT C BR1 21 Apr 23:44:45 23:47:59 21° 95° (E) 23:51:20 145.865
POPSAT HIP 1 21 Apr 23:45:50 23:49:09 22° 96° (E) 23:52:34 437.405
RS-15 21 Apr 23:48:03 23:57:18 28° 45° (NE) 00:07:18 29.354- 29.394
ESTCUBE 1 21 Apr 23:48:04 23:52:27 51° 75° (ENE) 23:56:50 437.505/2401.250
HUMSAT D 21 Apr 23:50:30 23:54:24 37° 262° (W) 23:58:19 437.325/437.525
DX 1 21 Apr 23:55:58 23:59:32 24° 264° (W) 00:03:01 434.975-435.025
YUBILEINY 21 Apr 23:57:09 00:05:51 70° 267° (W) 00:14:26 435.215
50 SAT 22 Apr 00:05:27 00:09:09 38° 262° (W) 00:12:54 437.505
POLYITAN 1 22 Apr 00:12:47 00:16:59 51° 99° (E) 00:21:12 437.675
PHONESAT 2.4 22 Apr 00:15:52 00:18:42 22° 16° (NNE) 00:21:33 2401.200-2431.200
DUCHIFAT 1 22 Apr 00:19:18 00:23:31 59° 100° (E) 00:27:44 145.980
O/OREOS (USA 219) 22 Apr 00:24:13 00:28:18 31° 294° (WNW) 00:32:20 437.305
TIGRISAT 22 Apr 00:25:29 00:30:04 52° 285° (WNW) 00:34:35 435.000
UNISAT 6 22 Apr 00:27:48 00:32:21 47° 285° (WNW) 00:36:48 437.425
SO-50 22 Apr 00:28:53 00:30:16 11° 252° (WSW) 00:31:18 436.795
VERMONT LUNAR 22 Apr 00:30:58 00:34:18 58° 27° (NNE) 00:37:36 437.305
BUGSAT 1 22 Apr 00:33:27 00:37:33 61° 101° (E) 00:41:41 437.445
QB50P1 22 Apr 00:33:50 00:38:08 86° 285° (WNW) 00:42:25 145.935-145.965
VELOX 1 22 Apr 00:46:53 00:49:34 15° 266° (W) 00:52:04 145.980
TISAT 1 22 Apr 00:51:01 00:54:58 44° 75° (ENE) 00:58:58 437.305
QB50P2 22 Apr 00:58:32 01:02:34 40° 285° (WNW) 01:06:35 145.880/145.840
CUBEBUG 1 22 Apr 01:04:18 01:07:37 21° 265° (W) 01:10:49 437.445
SPROUT 22 Apr 01:04:35 01:08:51 88° 75° (ENE) 01:13:08 437.525
SWISSCUBE 22 Apr 01:07:23 01:07:52 10° 68° (ENE) 01:08:41 437.505
ANTELSAT 22 Apr 01:11:04 01:14:02 16° 290° (WNW) 01:16:47 437.575/2403.000
NANOSAT C BR1 22 Apr 01:20:22 01:23:47 23° 287° (WNW) 01:27:05 145.865
POPSAT HIP 1 22 Apr 01:21:34 01:24:56 22° 288° (WNW) 01:28:13 437.405
Cosmos 2504 22 Apr 01:28:38 01:36:00 40° 77° (ENE) 01:42:59 435.465 / 435.565
ESTCUBE 1 22 Apr 01:28:46 01:29:39 10° 269° (W) 01:30:10 437.505/2401.250
Cosmos 2491 22 Apr 01:35:42 01:42:37 24° 288° (WNW) 01:49:11 435.465 / 435.565
POLYITAN 1 22 Apr 01:51:55 01:52:32 10° 290° (WNW) 01:52:51 437.675
PHONESAT 2.4 22 Apr 01:53:41 01:57:15 86° 212° (SSW) 02:00:47 2401.200-2431.200
RS-15 22 Apr 01:59:18 02:11:01 77° 246° (WSW) 02:23:08 29.354- 29.394
ITUPSAT 1 22 Apr 02:05:20 02:09:52 45° 74° (ENE) 02:14:28 437.325
VERMONT LUNAR 22 Apr 02:09:23 02:11:35 16° 219° (SW) 02:13:43 437.305
AIST 1 22 Apr 02:10:48 02:15:05 60° 277° (W) 02:19:21
JUGNU 22 Apr 02:13:18 02:16:51 16° 164° (SSE) 02:20:28 437.505
BEESAT 22 Apr 02:38:41 02:43:28 73° 258° (WSW) 02:48:16 436.000
SWISSCUBE 22 Apr 02:40:31 02:45:16 63° 259° (WSW) 02:50:02 437.505
Oscar 19 22 Apr 02:57:16 03:02:30 87° 97° (E) 03:07:42 437.125/150
STARS 22 Apr 03:12:08 03:15:34 24° 72° (ENE) 03:19:06 437.465
Cosmos 2504 22 Apr 03:22:29 03:29:13 30° 273° (W) 03:35:21 435.465 / 435.565
ITAMSAT 1 22 Apr 03:22:43 03:27:35 42° 99° (E) 03:32:29 435.822/435.867
Gurwin Techsat 1B 22 Apr 03:27:42 03:32:39 40° 98° (E) 03:37:39 435.225
PHONESAT 2.4 22 Apr 03:34:21 03:35:10 10° 221° (SW) 03:35:51 2401.200-2431.200
BEESAT 2 22 Apr 03:40:14 03:43:44 29° 112° (ESE) 03:47:20 435.950
KKS-1 22 Apr 03:42:35 03:47:00 84° 258° (WSW) 03:51:27 437.445
BEESAT 3 22 Apr 03:43:59 03:47:46 40° 113° (ESE) 03:51:38 437.485
ITUPSAT 1 22 Apr 03:45:32 03:48:02 14° 268° (W) 03:50:15 437.325
JUGNU 22 Apr 04:00:27 04:05:23 28° 172° (S) 04:10:19 437.505
SRMSAT 22 Apr 04:02:53 04:06:37 17° 165° (SSE) 04:10:26 437.500
JAS-2 22 Apr 04:09:20 04:11:13 12° 87° (E) 04:13:30 435.910
AIST 2 22 Apr 04:15:13 04:18:22 21° 111° (ESE) 04:21:41 435.215
RS-15 22 Apr 04:17:15 04:22:25 13° 257° (WSW) 04:26:12 29.354- 29.394
GONETS M04 22 Apr 04:19:21 04:27:11 36° 76° (ENE) 04:35:09
HORYU 2 22 Apr 04:24:06 04:27:52 27° 97° (E) 04:31:41 437.375
STARS 22 Apr 04:48:33 04:51:58 22° 265° (W) 04:55:17 437.465
ITAMSAT 1 22 Apr 05:03:21 05:06:49 18° 291° (WNW) 05:10:04 435.822/435.867
Gurwin Techsat 1B 22 Apr 05:08:38 05:12:23 19° 291° (WNW) 05:15:55 435.225
MOZHAYETS 4 22 Apr 05:15:47 05:20:20 57° 75° (ENE) 05:24:54
CUSAT 1 22 Apr 05:16:05 05:23:29 55° 80° (E) 05:31:40 437.405
BEESAT 2 22 Apr 05:18:59 05:21:54 18° 306° (NW) 05:24:44 435.950
AO-7 22 Apr 05:22:30 05:30:46 66° 104° (ESE) 05:39:03 29.400- 29.500
BEESAT 3 22 Apr 05:23:51 05:26:01 13° 308° (NW) 05:28:01 437.485
DANDE 22 Apr 05:28:07 05:35:23 54° 80° (E) 05:43:43 436.750
AUBIESAT-1 22 Apr 05:41:31 05:43:47 14° 64° (ENE) 05:46:19 437.475
JUGNU 22 Apr 05:48:50 05:53:58 31° 182° (S) 05:59:04 437.505
SRMSAT 22 Apr 05:50:19 05:55:18 28° 173° (S) 06:00:17 437.500
JAS-2 22 Apr 05:50:55 05:57:13 67° 286° (WNW) 06:02:47 435.910
AIST 2 22 Apr 05:53:17 05:56:51 25° 304° (NW) 06:00:24 435.215
HORYU 2 22 Apr 06:00:59 06:04:22 20° 289° (WNW) 06:07:36 437.375
Cosmos 2499 22 Apr 06:02:45 06:08:31 23° 71° (ENE) 06:14:17 435.465 / 435.565
GONETS M04 22 Apr 06:15:59 06:24:04 40° 271° (W) 06:31:56
M-CUBED/EXP-1 PRIME 22 Apr 06:27:22 06:31:53 52° 71° (ENE) 06:36:36 437.505
CUBESAT XI-V 22 Apr 06:41:15 06:45:22 33° 74° (ENE) 06:49:32 437.345
STRAND 1 22 Apr 06:47:44 06:51:16 20° 70° (ENE) 06:54:58 437.568
CUSAT 1 22 Apr 06:59:41 07:06:02 27° 269° (W) 07:12:30 437.405
DANDE 22 Apr 07:12:10 07:18:31 27° 268° (W) 07:25:08 436.750
AUBIESAT-1 22 Apr 07:13:36 07:18:07 52° 256° (WSW) 07:22:49 437.475
AO-7 22 Apr 07:16:48 07:23:00 23° 298° (WNW) 07:28:53 29.400- 29.500
CUTE-I 22 Apr 07:21:21 07:26:25 46° 99° (E) 07:31:32 437.470
PRISM 22 Apr 07:21:40 07:25:48 63° 76° (ENE) 07:29:56 437.425
Cubesat XI-IV 22 Apr 07:29:38 07:34:51 57° 100° (E) 07:40:05 437.490
JUGNU 22 Apr 07:37:59 07:42:31 23° 192° (SSW) 07:46:59 437.505
SRMSAT 22 Apr 07:38:54 07:44:02 31° 183° (S) 07:49:11 437.500
Cosmos 2499 22 Apr 07:54:43 08:02:05 48° 269° (W) 08:08:55 435.465 / 435.565
M-CUBED/EXP-1 PRIME 22 Apr 08:04:55 08:07:04 13° 265° (W) 08:08:58 437.505
CUBESAT XI-V 22 Apr 08:19:43 08:22:54 17° 267° (W) 08:25:52 437.345
STRAND 1 22 Apr 08:25:32 08:30:15 36° 262° (W) 08:34:55 437.568
